TimePDT,TemperatureF,Dew PointF,Humidity,Sea Level PressureIn,VisibilityMPH,Wind Direction,Wind SpeedMPH,Gust SpeedMPH,PrecipitationIn,Events,Conditions,WindDirDegrees,DateUTC
12:35 AM,53.6,53.6,100,29.87,8.0,WSW,5.8,-,N/A,,Unknown,250,2014-03-09 08:35:00
12:55 AM,53.6,53.6,100,29.88,3.0,WSW,6.9,-,0.01,Rain,Light Rain,250,2014-03-09 08:55:00
1:15 AM,51.8,51.8,100,29.90,3.0,SW,6.9,-,0.01,Rain,Light Rain,230,2014-03-09 09:15:00
1:35 AM,51.8,51.8,100,29.91,6.0,SW,6.9,-,0.02,Rain,Light Rain,230,2014-03-09 09:35:00
1:55 AM,51.8,51.8,100,29.91,8.0,SW,5.8,-,0.02,,Unknown,230,2014-03-09 09:55:00
3:15 AM,51.8,51.8,100,29.92,10.0,West,5.8,-,N/A,,Unknown,260,2014-03-09 10:15:00
3:35 AM,50.0,50.0,100,29.92,10.0,WSW,6.9,-,N/A,,Unknown,250,2014-03-09 10:35:00
3:55 AM,50.0,50.0,100,29.92,3.0,WSW,5.8,-,N/A,Rain,Light Rain,240,2014-03-09 10:55:00
4:15 AM,50.0,50.0,100,29.92,6.0,WSW,5.8,-,0.01,Rain,Light Rain,240,2014-03-09 11:15:00
4:35 AM,50.0,50.0,100,29.92,7.0,SW,5.8,-,0.03,Rain,Light Rain,230,2014-03-09 11:35:00
4:55 AM,50.0,50.0,100,29.92,8.0,SW,3.5,-,0.04,Rain,Light Rain,230,2014-03-09 11:55:00
5:15 AM,50.0,50.0,100,29.93,9.0,WSW,4.6,-,0.02,Rain,Light Rain,250,2014-03-09 12:15:00
5:35 AM,50.0,50.0,100,29.93,7.0,WSW,5.8,-,0.04,Rain,Light Rain,240,2014-03-09 12:35:00
5:55 AM,50.0,50.0,100,29.94,7.0,SSW,4.6,-,0.05,Rain,Light Rain,210,2014-03-09 12:55:00
6:15 AM,50.0,50.0,100,29.94,8.0,SW,4.6,-,0.01,Rain,Light Rain,220,2014-03-09 13:15:00
6:35 AM,48.2,48.2,100,29.94,8.0,SW,3.5,-,0.02,Rain,Light Rain,220,2014-03-09 13:35:00
6:55 AM,48.2,48.2,100,29.95,10.0,SSW,3.5,-,0.02,Rain,Light Rain,200,2014-03-09 13:55:00
7:15 AM,48.2,48.2,100,29.95,10.0,South,5.8,-,0.01,Rain,Light Rain,190,2014-03-09 14:15:00
7:35 AM,48.2,48.2,100,29.95,10.0,Calm,Calm,-,0.01,Rain,Light Rain,0,2014-03-09 14:35:00
7:55 AM,48.2,48.2,100,29.96,10.0,South,4.6,-,0.01,,Unknown,180,2014-03-09 14:55:00
8:20 AM,48.2,48.2,100,29.96,10.0,South,5.8,-,0.01,Rain,Light Rain,180,2014-03-09 15:20:00
8:35 AM,48.2,48.2,100,29.96,10.0,South,4.6,-,0.01,Rain,Light Rain,180,2014-03-09 15:35:00
8:55 AM,48.2,48.2,100,29.98,10.0,Calm,Calm,-,0.02,Rain,Light Rain,0,2014-03-09 15:55:00
9:15 AM,48.2,48.2,100,29.98,10.0,Calm,Calm,-,N/A,,Unknown,0,2014-03-09 16:15:00
9:35 AM,50.0,50.0,100,29.99,10.0,SSE,3.5,-,N/A,Rain,Light Rain,160,2014-03-09 16:35:00
9:55 AM,50.0,50.0,100,29.99,10.0,Calm,Calm,-,N/A,,Unknown,0,2014-03-09 16:55:00
10:15 AM,50.0,50.0,100,30.00,10.0,Calm,Calm,-,N/A,,Unknown,0,2014-03-09 17:15:00
10:35 AM,50.0,50.0,100,30.01,10.0,Calm,Calm,-,N/A,,Unknown,0,2014-03-09 17:35:00
10:55 AM,53.6,50.0,88,30.01,10.0,SW,4.6,-,N/A,,Unknown,220,2014-03-09 17:55:00
11:15 AM,53.6,50.0,88,30.03,10.0,SSW,5.8,-,N/A,,Unknown,210,2014-03-09 18:15:00
11:35 AM,55.4,48.2,77,30.04,10.0,SW,6.9,-,N/A,,Unknown,220,2014-03-09 18:35:00
11:55 AM,53.6,50.0,88,30.04,10.0,WSW,5.8,-,N/A,,Unknown,250,2014-03-09 18:55:00
12:15 PM,55.4,50.0,82,30.04,10.0,SW,5.8,-,N/A,,Unknown,220,2014-03-09 19:15:00
12:35 PM,53.6,50.0,88,30.04,8.0,West,8.1,-,N/A,,Unknown,260,2014-03-09 19:35:00
12:55 PM,53.6,50.0,88,30.03,10.0,West,5.8,-,N/A,,Unknown,260,2014-03-09 19:55:00
1:15 PM,55.4,50.0,82,30.03,10.0,WSW,3.5,-,N/A,,Unknown,240,2014-03-09 20:15:00
1:35 PM,55.4,50.0,82,30.02,10.0,West,3.5,-,N/A,,Unknown,270,2014-03-09 20:35:00
1:55 PM,55.4,48.2,77,30.02,10.0,WSW,6.9,-,N/A,,Unknown,240,2014-03-09 20:55:00
2:15 PM,57.2,48.2,72,30.02,10.0,WSW,6.9,-,N/A,,Unknown,240,2014-03-09 21:15:00
2:35 PM,57.2,48.2,72,30.01,10.0,WSW,3.5,-,N/A,,Unknown,250,2014-03-09 21:35:00
2:55 PM,57.2,48.2,72,30.01,10.0,WNW,5.8,-,N/A,,Unknown,290,2014-03-09 21:55:00
3:15 PM,57.2,46.4,67,30.00,10.0,WNW,5.8,-,N/A,,Unknown,290,2014-03-09 22:15:00
3:35 PM,57.2,48.2,72,30.00,10.0,Calm,Calm,-,N/A,,Unknown,0,2014-03-09 22:35:00
3:55 PM,57.2,48.2,72,29.99,10.0,West,3.5,-,N/A,,Unknown,270,2014-03-09 22:55:00
4:15 PM,57.2,46.4,67,29.99,10.0,Calm,Calm,-,N/A,,Unknown,0,2014-03-09 23:15:00
4:35 PM,55.4,48.2,77,29.99,10.0,Calm,Calm,-,N/A,,Unknown,0,2014-03-09 23:35:00
4:55 PM,53.6,50.0,88,30.00,1.8,WNW,3.5,-,0.10,Rain,Rain,300,2014-03-09 23:55:00
5:15 PM,50.0,50.0,100,29.99,4.0,NW,3.5,-,0.07,Rain,Light Rain,320,2014-03-10 00:15:00
5:35 PM,50.0,50.0,100,30.00,10.0,Calm,Calm,-,0.07,,Unknown,0,2014-03-10 00:35:00
5:55 PM,50.0,50.0,100,29.99,10.0,Calm,Calm,-,0.07,Rain,Light Rain,0,2014-03-10 00:55:00
6:15 PM,50.0,50.0,100,29.99,9.0,Calm,Calm,-,N/A,Rain,Light Rain,0,2014-03-10 01:15:00
6:35 PM,50.0,50.0,100,29.98,10.0,Calm,Calm,-,N/A,,Unknown,0,2014-03-10 01:35:00
6:55 PM,50.0,50.0,100,29.98,10.0,Calm,Calm,-,N/A,,Unknown,0,2014-03-10 01:55:00
7:15 PM,50.0,50.0,100,29.98,10.0,Calm,Calm,-,N/A,,Unknown,0,2014-03-10 02:15:00
7:35 PM,48.2,48.2,100,29.98,10.0,Calm,Calm,-,N/A,,Unknown,0,2014-03-10 02:35:00
7:55 PM,48.2,48.2,100,29.98,10.0,Calm,Calm,-,N/A,,Unknown,0,2014-03-10 02:55:00
8:15 PM,48.2,48.2,100,29.98,10.0,Calm,Calm,-,N/A,,Unknown,0,2014-03-10 03:15:00
8:35 PM,48.2,48.2,100,29.98,10.0,Calm,Calm,-,N/A,Rain,Light Rain,0,2014-03-10 03:35:00
8:55 PM,48.2,48.2,100,29.98,10.0,North,-9999.0,-,N/A,Rain,Light Rain,0,2014-03-10 03:55:00
9:15 PM,48.2,48.2,100,29.98,4.0,Calm,Calm,-,N/A,Rain,Light Rain,0,2014-03-10 04:15:00
9:35 PM,48.2,48.2,100,29.98,2.5,NW,3.5,-,0.03,Rain,Light Rain,320,2014-03-10 04:35:00
9:55 PM,48.2,48.2,100,29.98,2.5,Calm,Calm,-,0.06,Rain,Rain,0,2014-03-10 04:55:00
10:15 PM,48.2,48.2,100,29.98,3.0,Calm,Calm,-,0.04,Rain,Rain,0,2014-03-10 05:15:00
10:35 PM,48.2,48.2,100,29.97,5.0,Calm,Calm,-,0.09,Rain,Light Rain,0,2014-03-10 05:35:00
10:55 PM,46.4,46.4,100,29.97,5.0,Calm,Calm,-,0.14,Rain,Light Rain,0,2014-03-10 05:55:00
11:15 PM,46.4,46.4,100,29.97,8.0,Calm,Calm,-,0.01,Rain,Light Rain,0,2014-03-10 06:15:00
11:35 PM,46.4,46.4,100,29.97,10.0,Calm,Calm,-,0.01,,Unknown,0,2014-03-10 06:35:00
11:55 PM,46.4,46.4,100,29.96,9.0,Calm,Calm,-,0.01,Rain,Light Rain,0,2014-03-10 06:55:00
12:15 AM,46.4,46.4,100,29.96,8.0,South,3.5,-,0.01,Rain,Light Rain,170,2014-03-10 07:15:00
12:35 AM,46.4,46.4,100,29.97,7.0,Calm,Calm,-,0.02,Rain,Light Rain,0,2014-03-10 07:35:00
12:55 AM,46.4,46.4,100,29.97,4.0,Calm,Calm,-,0.04,Rain,Light Rain,0,2014-03-10 07:55:00